Regional Weather Roundup
Issued by NWS Wakefield, VA

Home | Current Version | Previous Version | Graphics & Text | Print | Product List | Glossary On
Versions: 1 2 3 4 5 6 7 8 9 10 11 12 13 14 15 16 17 18 19 20 21 22 23 24 25 26 27 28 29 30 31 32 33 34 35 36 37 38 39 40 41 42 43 44 45 46 47
000
ASUS41 KAKQ 301812
RWRAKQ

REGIONAL WEATHER ROUNDUP
NATIONAL WEATHER SERVICE WAKEFIELD VA
200 PM EDT SUN AUG 30 2015

Note: "fair" indicates few or no clouds below 12,000 feet with no
significant weather and/or obstructions to visibility. * = Denotes
station may not report precipitation (e.g., rain,snow,etc.),
thunder or fog.

VAZ042-051-052>054-056-301900-
NORTHERN VIRGINIA

CITY           SKY/WX    TMP DP  RH WIND       PRES   REMARKS
WASH NATIONAL  CLOUDY    82  68  62 S8        30.11F
DULLES         CLOUDY    81  65  58 S5        30.11F
FORT BELVOIR   CLOUDY    83  67  59 VRB3      30.11F
QUANTICO       CLOUDY    79  68  69 S7        30.13F
FREDERICKSBRG* CLOUDY    87  67  50 CALM      30.11F
STAFFORD*      CLOUDY    84  65  53 CALM      30.16F
WARRENTON      CLOUDY    87  67  51 S5        30.12F
CULPEPER*      CLOUDY    84  66  53 S3        30.12F
MANASSAS*      SUNNY     82  68  61 CALM      30.11F
LEESBURG*      CLOUDY    86  72  62 SW7       30.12F
WINCHESTER     CLOUDY    88  61  40 NW8       30.11F
FRONT ROYAL*   FAIR      86  64  48 SE3       30.11F
LURAY*         FAIR      86  61  42 SE3       30.13F
$$

VAZ048-049-060>072-079>083-301900-
CENTRAL AND SOUTH CENTRAL VIRGINIA

CITY           SKY/WX    TMP DP  RH WIND       PRES   REMARKS
RICHMOND       PTSUNNY   88  62  41 S7        30.12F
CHESTERFIELD*  FAIR      88  59  37 S8        30.14F
PETERSBURG*    NOT AVBL
HANOVER        PTSUNNY   88  63  43 SE3       30.13F
TAPPAHANNOCK*  PTSUNNY   86  58  38 SE6       30.13F
QUINTON*       FAIR      85  64  48 S5        30.13S
CHARLOTTSVILLE PTSUNNY   85  63  47 VRB3      30.13F
GORDONSVILLE*  FAIR      87  65  47 CALM      30.12S
ORANGE*        PTSUNNY   88  61  40 CALM      30.14S
LOUISA*        MOSUNNY   90  63  40 SE6       30.11F
BUMPASS*       FAIR      89  64  43 CALM      30.12F
FARMVILLE*     PTSUNNY   88  60  38 S6        30.11F
CREWE*         FAIR     N/A N/A N/A W5        30.13F
FORT PICKETT*  FAIR      87  60  40 SE7       30.13F
CHASE CITY*    MOCLDY    89  62  40 CALM      30.14S
CLARKSVILLE*   FAIR      84  61  45 N3        30.13F
SOUTH HILL*    FAIR      84  63  48 CALM      30.20F
LAWRENCEVILLE* FAIR      84  61  45 CALM      30.14F
EMPORIA*       SUNNY     86  57  37 CALM      30.15F
$$

VAZ088>098-301900-
SOUTHEAST VIRGINIA

CITY           SKY/WX    TMP DP  RH WIND       PRES   REMARKS
NORFOLK        SUNNY     85  58  39 NE8       30.13F
VIRGINIA BEACH PTSUNNY   87  59  38 E8        30.13F
NORFOLK NAVAL  PTSUNNY   87  58  37 NE7       30.15F
WEST POINT*    CLOUDY    87  61  41 S6        30.15F
SALUDA*        FAIR      83  66  55 SW5       30.13F
NEWPORT NEWS   PTSUNNY   85  61  44 CALM      30.13F
LANGLEY AFB    MOSUNNY   87  63  45 SE8       30.13F
FORT EUSTIS    MOSUNNY   86  59  40 SW7       30.12F
WILLIAMSBURG*  PTSUNNY   91  63  38 S7        30.14F
HR EXEC AP*      N/A     88  63  42 NE3       30.15S
FRANKLIN*      SUNNY     87  58  37 CALM      30.14S
WAKEFIELD      MOSUNNY   88  58  36 CALM      30.13F
$$

VAZ020-022-025-037-045-301900-
WEST CENTRAL AND SOUTHWEST VIRGINIA

CITY           SKY/WX    TMP DP  RH WIND       PRES   REMARKS
STAUNTON*      CLOUDY    88  58  35 SE3       30.17F
WAYNESBORO*    FAIR      84  60  44 CALM      30.17F
HOT SPRINGS VA CLOUDY    73  61  65 NE3       30.28S
LYNCHBURG      CLOUDY    84  61  45 SE7       30.16F
DANVILLE       CLOUDY    84  63  49 W5        30.15F
SOUTH BOSTON*  FAIR      86  59  39 SW6       30.14S
MARTINSVILLE   CLOUDY    82  64  53 S5        30.20S
ROANOKE        CLOUDY    80  62  54 W6        30.19F
BLACKSBURG     CLOUDY    77  65  65 CALM      30.25F
DUBLIN*        CLOUDY    77  64  63 CALM      30.24F
MARION*        CLOUDY    75  62  62 CALM      30.27F
HILLSVILLE*    CLOUDY    74  61  62 CALM      30.24F
RICHLANDS*     MOCLDY    74  31  20 NE3       30.25F
WISE*          CLOUDY    73  61  64 N5        30.26F
ABINGDON*      CLOUDY    79  60  50 E3        30.22F
$$

MDZ021>025-VAZ099-100-301900-
SOUTHERN MARYLAND AND THE DELMARVA PENINSULA

CITY           SKY/WX    TMP DP  RH WIND       PRES   REMARKS
PATUXENT RIVER CLOUDY    85  64  49 S8        30.12F
BAY BRIDGE APT   N/A     81  63  54 SW7       30.11F
LEONARDTOWN    CLOUDY    82  63  51 CALM      30.14F
DOVER          CLOUDY    84  68  57 S13       30.10S
GEORGETOWN     CLOUDY    85  63  47 SW8       30.12F
EASTON         MOSUNNY   86  64  48 SW12      30.15F
CAMBRIDGE      PTSUNNY   82  63  51 SW5       30.12S
SALISBURY      PTSUNNY   86  66  51 SW7       30.12F
OCEAN CITY     PTSUNNY   83  65  54 S9        30.12F
WALLOPS ISLAND PTSUNNY   86  64  47 S12       30.13F
ACCOMACK*      PTSUNNY   82  66  57 SE7       30.13F
$$

NCZ012>017-030>032-301900-
NORTH CENTRAL AND EASTERN NORTH CAROLINA

CITY           SKY/WX    TMP DP  RH WIND       PRES   REMARKS
ROANOKE RAPIDS FAIR      86  55  35 E8        30.13F
RALEIGH        CLOUDY    84  59  42 VRB3      30.15F
ELIZABETH CITY SUNNY     86  58  38 VRB7      30.14F
AHOSKIE*       MOSUNNY   84  58  42 NE3       30.14S
EDENTON*       MOSUNNY   83  67  58 S7        30.13F
CURRITUCK*     SUNNY     84  62  47 E3        30.15F
KILL DEVIL HLS SUNNY     84  69  60 N6        30.13F
MANTEO         SUNNY     80  71  72 NE8       30.14F
CAPE HATTERAS  CLOUDY    82  73  74 NE5       30.14F
TARBORO*       FAIR      87  58  37 CALM      30.13F
GOLDSBORO      PTSUNNY   86  63  46 E5        30.12F
WASHINGTON     CLOUDY    84  63  49 E8        30.13F
GREENVILLE     CLOUDY    84  61  45 CALM      30.15F
NEW BERN       CLOUDY    83  62  49 N7        30.15F
WILMINGTON     PTSUNNY   83  61  47 E8        30.15F
$$

VAZ048-301900-
ELSEWHERE

CITY           SKY/WX    TMP DP  RH WIND       PRES   REMARKS
HARRISBURG PA  PTSUNNY   86  68  54 SE5       30.07F
BALTIMORE      CLOUDY    83  68  60 SW5       30.09F
ANNAPOLIS      CLOUDY    79  68  69 SE10      30.10F
ANDREWS AFB    CLOUDY    82  66  57 SW5       30.11F
PHILADELPHIA   PTSUNNY   88  64  44 SW10      30.08F
HENDERSON NC   CLOUDY    86  53  31 CALM      30.15S
GREENSBORO     CLOUDY    82  60  47 W5        30.17F
ROCKY MOUNT    PTSUNNY   89  57  33 SW5       30.13F
$$

VAZ100-301900-
MARINE

STATION/POSITION TIME  TEMP    WIND        PRES    WAVE   SWELL
                       AIR SEA DIR/SP/G            HT/PER HT/PER
                 (UTC) (F)     (DEG/KT/KT) (MB)    (FT/S) (FT/S)
15NM E FENWICK I 1750   77 79  200/  8/ 10 1020.5F   3/10   3/10
GOOSES REEF MD   1800   78 79  180/ 10/ 12 1020.7F
POTOMAC MD       1800   80 79  160/ 10/ 12 1018.9F   1/ 2
STINGRAY PT      1700   79 80  160/  8/ 10 1021.2F   0
JAMESTOWN VA     1800   83 83  120/  2/  4   N/A
CHESAPEAKE LGHT  1700   77     350/  2/  2 1021.9F
CAPE HENRY BUOY  1728      81                N/A     3/11   2/11
1ST LANDING BUOY 1800      81              1020.4F   1/ 5
CAPE CHARLES BUO 1726      81                N/A     2/10   2/10
OFFSHORE WE BUOY 1711      79                N/A     3/11   3/11
64NM E OF VA BCH 1750   78 78   50/  8/ 10 1020.3F   4/10   3/10
44100 DUCK FRF   1724      79                N/A     3/11   2/11
44056 DUCK FRF   1711      79                N/A     3/11   2/11
DIAMOND SHLS NC  1750   79 83   20/  6/  8 1020.8F   4/10   3/10
CAPE LOOKOUT NC  1700   78      40/  7/  8 1020.5F
$$



USA.gov is the U.S. government's official web portal to all federal, state and local government web resources and services.